Location: ????????
(55.4000°N, 39.1167°E)
Time: 02:32:32
(UTC+00:00)

Meteor 1-27 Rocket - Pass Details

Date: 19 May 2025
Orbit: 829 x 908 km, 81.3° (Epoch: 15 June)

Event Time Altitude Azimuth Distance (km) Brightness Sun altitude
Exits shadow 20:48:30 16° 203° (SSW) 2,068 5.2 -14.3°
Maximum altitude 20:53:01 72° 287° (WNW) 886 3.9 -14.4°
Drops below altitude 10° 20:58:34 10° 12° (NNE) 2,455 7.4 -14.5°
Sets 21:00:59 0° 14° (NNE) 3,389 8.3 -14.5°
